OSCAR 31

Last updated on Sat Sep 05 2026 00:03:34 GMT+0000 (Coordinated Universal Time)

1 19420U 88074B 26247.29830306 .00000088 00000+0 13637-3 0 9993 2 19420 90.0485 21.6729 0093776 201.8133 180.3906 13.42620188862144
UTC large
Height (km)
Speed (km/s)
/
Latitude / Longitude
Inclination (degrees)
Orbital Period (minutes)
Azimuth
Elevation
Range (km)
Doppler Factor

Next 0 passes for location: London (51.5072 / 0.1276)

No passes found over London.
OSCAR 31